My Profile
  1. Member Settings
  2. My Devices
  3. Sign Out
        More Settings
      Elev 835 ft, 42.414 °N 74.009 °W

      Greenville, NY

      Summary

      Temperature (°F)MaxAverageMin
      Max Temperature14271.948
      Avg Temperature73.7562.0248
      Min Temperature6854.9742
      Precipitation (in)MaxAverageMinSum
      Precipitation0000
      Dew Point (°F)MaxAverageMin
      Dew Point72.7556.4944
      Wind (mph)MaxAverageMin
      Wind2111.770
      Gust Wind3022.2716
      Sea Level Pressure (in)MaxAverageMin
      Sea Level Pressure30.0129.6829.47

      Daily Observations

      DateTemp High/LowDew Pt High/LowHumidityWindMax WindWind GustPressurePrecip.Condition
      9/1/2021 63 °F / 55 °F 61 °F / 55 °F 96 % 12 mph - 29.52 in 0 in
      9/2/2021 64 °F / 53 °F 54 °F / 50 °F 80 % 15 mph - 29.56 in 0 in
      9/3/2021 67 °F / 54 °F 54 °F / 51 °F 77 % 10 mph - 29.71 in 0 in
      9/4/2021 74 °F / 51 °F 58 °F / 51 °F 80 % 10 mph - 29.67 in 0 in
      9/5/2021 66 °F / 58 °F 64 °F / 57 °F 96 % 14 mph - 29.5 in 0 in
      9/6/2021 72 °F / 58 °F 64 °F / 53 °F 80 % 16 mph - 29.48 in 0 in
      9/7/2021 73 °F / 53 °F 57 °F / 53 °F 80 % 9 mph - 29.61 in 0 in
      9/8/2021 79 °F / 60 °F 65 °F / 56 °F 81 % 21 mph - 29.49 in 0 in
      9/9/2021 142 °F / 60 °F 142 °F / 60 °F 97 % 6 mph - 29.47 in 0 in
      9/10/2021 68 °F / 54 °F 57 °F / 44 °F 75 % 18 mph - 29.58 in 0 in
      9/11/2021 73 °F / 50 °F 56 °F / 50 °F 77 % 12 mph - 29.78 in 0 in
      9/12/2021 73 °F / 59 °F 68 °F / 55 °F 85 % 12 mph - 29.67 in 0 in
      9/13/2021 71 °F / 55 °F 67 °F / 52 °F 78 % 15 mph - 29.7 in 0 in
      9/14/2021 73 °F / 51 °F 63 °F / 51 °F 86 % 15 mph - 29.71 in 0 in
      9/15/2021 80 °F / 62 °F 71 °F / 62 °F 93 % 17 mph - 29.62 in 0 in
      9/16/2021 74 °F / 56 °F 63 °F / 56 °F 85 % 7 mph - 29.91 in 0 in
      9/17/2021 71 °F / 63 °F 66 °F / 63 °F 93 % 10 mph - 29.92 in 0 in
      9/18/2021 78 °F / 60 °F 66 °F / 56 °F 86 % 12 mph - 29.76 in 0 in
      9/19/2021 68 °F / 51 °F 56 °F / 50 °F 83 % 12 mph - 29.88 in 0 in
      9/20/2021 72 °F / 48 °F 57 °F / 48 °F 82 % 13 mph - 30 in 0 in
      9/21/2021 68 °F / 55 °F 59 °F / 54 °F 81 % 15 mph - 30 in 0 in
      9/22/2021 76 °F / 62 °F 68 °F / 60 °F 86 % 13 mph - 29.75 in 0 in
      9/23/2021 78 °F / 68 °F 68 °F / 65 °F 84 % 16 mph - 29.61 in 0 in
      9/24/2021 69 °F / 53 °F 60 °F / 50 °F 83 % 9 mph - 29.69 in 0 in
      9/25/2021 70 °F / 48 °F 58 °F / 48 °F 86 % 3 mph - 29.68 in 0 in
      9/26/2021 65 °F / 51 °F 57 °F / 42 °F 74 % 18 mph - 29.56 in 0 in
      9/27/2021 70 °F / 48 °F 58 °F / 48 °F 83 % 12 mph - 29.54 in 0 in
      9/28/2021 62 °F / 53 °F 59 °F / 46 °F 89 % 9 mph - 29.52 in 0 in
      9/29/2021 62 °F / 42 °F 50 °F / 41 °F 75 % 13 mph - 29.67 in 0 in
      9/30/2021 59 °F / 48 °F 48 °F / 43 °F 78 % 7 mph - 29.79 in 0 in
      essentialaccessibility.com
      We recognize our responsibility to use data and technology for good. We may use or share your data with our data vendors. Take control of your data.
      Glossary